Location: Newark
(34.1333°N, 7.9667°W)
Time: 18:29:22
(UTC+00:00)

Transit 2A - Pass Details

Date: 14 June 2021
Orbit: 598 x 960 km, 66.7° (Epoch: 02 August)

Event Time Altitude Azimuth Distance (km) Brightness Sun altitude
Rises 17:01:39 0° 181° (S) 2,922 9.0 31.0°
Reaches altitude 10° 17:04:11 10° 170° (S) 1,980 8.1 30.5°
Maximum altitude 17:07:58 29° 110° (ESE) 1,121 6.6 29.7°
Drops below altitude 10° 17:11:42 10° 50° (NE) 1,937 7.8 28.9°
Sets 17:14:09 0° 39° (NE) 2,846 8.7 28.4°
